Showing default

HAWK-11B, 62379

Orbit data source: Space-Track

HAWK-11B, 62379 is a payload satellite owned by HawkEye 360 (US) in LEO that was launched on Sat, 21 Dec 2024 UTC via an FALCON 9 launch vehicle from the Air Force Western Test Range (AFWTR). Payload-class satellites include a variety of spacecraft equipped with specific instruments for various scientific and technological missions. These include communications satellites like Starlink; space stations such as the ISS; scientific satellites like the Hubble; Earth observation satellites from companies like Planet Labs, Umbra, and HawkEye 360; GPS; miniature CubeSats for education and research; and military/defense satellites.

Loading next visibility...
Identifier
62379, 2024-247C
Orbit
LEO
Country
Flag of USUS
Related business
Manufacturer
UTIAS-SFL
Mission
Operational Commercial Sigint
Bus & Motor
HAWK2G, Unknown motor
Mass
31 kg wet, 30 kg dry
Launch date (UTC)
2024-12-21 (11 months ago)
Launch vehicle
FALCON 9
Launch site
Air Force Western Test Range (AFWTR)
Object type
Payload
Rocket body
Debris
Shape & HBR
Box + 2 Pan, 1.0 m
Radar Cross Section
0.240 m², Medium (>0.1 m² and < 1m²)

Expand to show TLE details & history
Last TLE update: 1 day ago

TLE from 1 day ago
0 HAWK-11B
1 62379U 24247C   25338.51363492  .00017745  00000-0  66815-3 0  9993
2 62379  45.0142 274.0987 0002742 137.2022 222.9075 15.26919823 53218
Epoch: 2025-12-04T12:19Z
TLE epoch observation values (Epoch: 2025-12-04T12:19:38.057Z)
Latitude
0.00001°
Longitude
15.62115°
Altitude
486.405 km
Speed
7.623 km/s
True Right ascension
18h 16m 23s
True Declination
0° 00' 00"
Sunlit
Object was in daylight at epoch
Visualization orbit readout
Latitude
Unknown
Longitude
Unknown
Altitude
Unknown
Speed
Unknown
Apparent Right ascension
Unknown
Apparent Declination
Unknown
Sunlit
N/A
Visualization observer readout
Local Sidereal Time
13:06:52
Azimuth
Unknown
Elevation
Unknown
Doppler factor
Unknown
Orbital elements
Apogee altitude
488.515 km
Perigee altitude
484.751 km
Semi-major axis
6,864.77 km
Eccentricity
0.00027
Inclination
45.0142°
RAAN
274.0987°
Arg. of periapsis
137.2022°
True anomaly
222.88611°
Mean anomaly
222.9075°
Eccentric anomaly
222.89681°
Mean motion
3.81596 °/min
Orbital period
94.34 mins
BSTAR
0.00066815
Loading maneuver chart data...
Computing Atmospheric mass density...
Loading historical data...
Loading historical data...
Loading historical data...
Loading historical data...
Loading historical data...
Loading historical data...
Loading historical data...

Documentation

Showing up to 5 results
|